Regional Weather Roundup
Issued by NWS

Home | Current Version | Previous Version | Text Only | Print | Product List | Glossary On
Versions: 1 2 3 4 5 6 7 8 9 10 11 12 13 14 15 16 17 18 19 20 21 22 23 24 25 26 27 28 29 30 31 32 33 34 35 36 37 38 39 40 41 42 43 44 45 46 47 48 49 50
838
ASUS44 KOUN 181710
RWROK

WEATHER ROUNDUP FOR OKLAHOMA
NATIONAL WEATHER SERVICE NORMAN OK
1100 AM CST WED JAN 18 2017

NOTE: "FAIR" INDICATES FEW OR NO CLOUDS BELOW 12,000 FEET WITH NO
      SIGNIFICANT WEATHER AND/OR OBSTRUCTIONS TO VISIBILITY.

OKZ001>007-009>012-014-015-017-181800-
NORTHWEST OKLAHOMA AND THE PANHANDLE

CITY           SKY/WX    TMP DP  RH WIND       PRES   REMARKS
GUYMON         SUNNY     46  40  79 SE9       30.01S
ENID/WOODRING  CLOUDY    48  39  71 SE12      30.12F
$$

OKZ016-021>023-033>039-044-045-181800-
SOUTHWEST OKLAHOMA

CITY           SKY/WX    TMP DP  RH WIND       PRES   REMARKS
LAWTON/REGL    CLOUDY    46  43  89 E3        30.14F
LAWTON/FT SILL CLOUDY    46  46 100 NE3       30.12F
FREDERICK      CLOUDY    45  43  93 E5        30.11F FOG
CLINTON        CLOUDY    46  41  82 S9        30.13R
HOBART         CLOUDY    47  43  86 S10       30.13F
ALTUS AFB      CLOUDY    45  42  88 SE7       30.13F
$$

OKZ018>020-024>031-181800-
CENTRAL OKLAHOMA

CITY           SKY/WX    TMP DP  RH WIND       PRES   REMARKS
OKLAHOMA CITY  CLOUDY    47  40  76 SE6       30.14F
OKC/WILEY POST CLOUDY    49  39  68 S7        30.14F
OKC/TINKER AFB CLOUDY    45  42  87 SE5       30.13F
STILLWATER     CLOUDY    49  40  71 SE5       30.15F
GUTHRIE        CLOUDY    49  39  68 SE5       30.15S
$$

OKZ008-013-054>072-181800-
NORTHEAST OKLAHOMA

CITY           SKY/WX    TMP DP  RH WIND       PRES   REMARKS
TULSA          CLOUDY    47  38  71 SE6       30.18R
TULSA/JONES    CLOUDY    46  38  73 S3        30.18R
BARTLESVILLE   CLOUDY    42  37  82 CALM      30.19R
MUSKOGEE       CLOUDY    45  41  86 S5        30.19R
$$

OKZ032-040>043-046>053-073>077-181800-
SOUTH CENTRAL/SOUTHEAST OKLAHOMA

CITY           SKY/WX    TMP DP  RH WIND       PRES   REMARKS
ARDMORE/DWNTWN CLOUDY    46  43  87 E6        30.13F
MCALESTER      CLOUDY    46  42  86 NE5       30.16F FOG
$$





USA.gov is the U.S. government's official web portal to all federal, state and local government web resources and services.